Weather History for KAJG - December, 2013

Change the Weather History Date:

Saturday, December 21, 2013

  Actual Average (KLWV) Record (KLWV)
Temperature  
Mean Temperature 42 °F 33 °F  
Max Temperature 46 °F 41 °F 59 °F (2011)
Min Temperature 37 °F 25 °F 1 °F (2000)
Degree Days  
Heating Degree Days 24 32  
Month to date heating degree days 611  
Since 1 July heating degree days 1469  
Cooling Degree Days 0 0  
Month to date cooling degree days 0  
Year to date cooling degree days 1387  
Moisture  
Dew Point 38 °F    
Average Humidity 95    
Maximum Humidity 100    
Minimum Humidity 93    
Precipitation  
Precipitation 1.60 in 0.12 in 3.23 in (2013)
Month to date precipitation 2.21  
Year to date precipitation 42.70  
Sea Level Pressure  
Sea Level Pressure 29.67 in    
Wind  
Wind Speed 8 mph (North)    
Max Wind Speed 16 mph    
Max Gust Speed 18 mph    
Visibility 6 miles    
Events Rain , Thunderstorm    
T = Trace of Precipitation, MM = Missing Value Source: NWS Daily Summary

Daily Weather History Graph

Daily Weather History Graph

Search for Another Location

Airport or City:

Trip Planner

Search our weather history database for the weather conditions in past years. The results will help you decide how hot, cold, wet, or windy it might be!

Date:

Astronomy

Dec. 21, 2013 Rise Set
Actual Time 7:05 AM CST 4:33 PM CST
Civil Twilight 6:35 AM CST 5:03 PM CST
Nautical Twilight 6:01 AM CST 5:36 PM CST
Astronomical Twilight 5:29 AM CST 6:08 PM CST
Moon 8:46 PM CST (12/21) 9:33 AM CST (12/21)
Length of Visible Light 10h 27m
Length of Day
9h 28m
Waning Gibbous, 84% of the Moon is Illuminated
Dec 21
Waning Gibbous
Dec 25
Last Quarter
Jan 1
New
Jan 7
First Quarter
Jan 15
Full

Hourly Weather History & Observations

Time (CST) Temp. Windchill Dew Point Humidity Pressure Visibility Wind Dir Wind Speed Gust Speed Precip Events Conditions
12:15 AM 46.4 °F 41.9 °F 44.6 °F 93% 29.83 in 5.0 mi NNW 9.2 mph - N/A Rain Light Rain
12:35 AM 46.4 °F 42.9 °F 44.6 °F 93% 29.83 in 5.0 mi NNW 6.9 mph - N/A Rain Rain
12:55 AM 44.6 °F 39.2 °F 42.8 °F 93% 29.81 in 7.0 mi NNW 10.4 mph - N/A Rain Light Rain
1:15 AM 44.6 °F 41.4 °F 42.8 °F 93% 29.80 in 10.0 mi North 5.8 mph - N/A Rain Light Rain
1:35 AM 42.8 °F 39.3 °F 41.0 °F 93% 29.80 in 10.0 mi NNW 5.8 mph - N/A   Overcast
1:55 AM 42.8 °F 37.5 °F 41.0 °F 93% 29.81 in 10.0 mi NNW 9.2 mph - N/A Rain Light Rain
2:15 AM 42.8 °F 37.5 °F 41.0 °F 93% 29.80 in 5.0 mi NNW 9.2 mph - N/A Rain Rain
2:35 AM 42.8 °F 41.1 °F 41.0 °F 93% 29.79 in 7.0 mi NNE 3.5 mph - N/A Rain Rain
2:55 AM 41.0 °F 35.2 °F 41.0 °F 100% 29.78 in 7.0 mi North 9.2 mph - N/A Rain Rain
3:15 AM 41.0 °F 36.4 °F 39.2 °F 93% 29.78 in 7.0 mi NNE 6.9 mph - N/A Rain Rain
3:35 AM 41.0 °F 34.7 °F 39.2 °F 93% 29.78 in 7.0 mi North 10.4 mph - N/A Rain Rain
3:55 AM 39.2 °F 34.2 °F 37.4 °F 93% 29.77 in 10.0 mi North 6.9 mph - 0.01 in Rain Light Rain
4:15 AM 39.2 °F 34.2 °F 37.4 °F 93% 29.76 in 2.5 mi North 6.9 mph - N/A   Overcast
4:35 AM 39.2 °F 35.0 °F 37.4 °F 93% 29.76 in 1.8 mi North 5.8 mph - N/A   Unknown
4:55 AM 39.2 °F 33.6 °F 37.4 °F 93% 29.77 in 2.5 mi NNW 8.1 mph - N/A   Overcast
5:20 AM 39.2 °F 34.2 °F 37.4 °F 93% 29.76 in 7.0 mi North 6.9 mph - N/A Rain Rain
5:35 AM 39.2 °F 37.0 °F 37.4 °F 93% 29.76 in 7.0 mi North 3.5 mph - N/A Rain Rain
5:55 AM 39.2 °F 35.9 °F 37.4 °F 93% 29.75 in 3.0 mi North 4.6 mph - N/A   Overcast
6:10 AM 39.2 °F 34.2 °F 37.4 °F 93% 29.75 in 2.5 mi North 6.9 mph - N/A Thunderstorm Overcast
6:35 AM 39.2 °F 35.9 °F 37.4 °F 93% 29.77 in 1.5 mi NNE 4.6 mph - N/A   Unknown
6:55 AM 39.2 °F 33.6 °F 37.4 °F 93% 29.78 in 2.0 mi NW 8.1 mph - N/A   Unknown
7:15 AM 39.2 °F 33.0 °F 37.4 °F 93% 29.77 in 1.8 mi North 9.2 mph - N/A   Unknown
7:35 AM 39.2 °F 33.0 °F 37.4 °F 93% 29.76 in 4.0 mi North 9.2 mph - N/A Rain Rain
7:55 AM 37.4 °F 31.4 °F 37.4 °F 100% 29.77 in 2.0 mi NNE 8.1 mph - N/A   Overcast
8:15 AM 37.4 °F 30.8 °F 37.4 °F 100% 29.75 in 10.0 mi NE 9.2 mph - N/A Rain Rain
8:35 AM 37.4 °F 34.9 °F 37.4 °F 100% 29.79 in 7.0 mi North 3.5 mph - 0.06 in Rain Rain
8:55 AM 37.4 °F 32.1 °F 37.4 °F 100% 29.75 in 5.0 mi ENE 6.9 mph - 0.14 in Rain Rain
9:15 AM 37.4 °F 29.3 °F 37.4 °F 100% 29.73 in 10.0 mi East 12.7 mph - 0.06 in Rain Light Rain
9:35 AM 39.2 °F 32.0 °F 37.4 °F 93% 29.74 in 7.0 mi ENE 11.5 mph - 0.14 in Rain Rain
9:55 AM 39.2 °F 34.2 °F 37.4 °F 93% 29.74 in 10.0 mi ENE 6.9 mph - 0.20 in Rain Rain
10:15 AM 39.2 °F 35.9 °F 37.4 °F 93% 29.74 in 7.0 mi NNE 4.6 mph - 0.05 in Rain Rain
10:35 AM 39.2 °F 35.0 °F 37.4 °F 93% 29.73 in 10.0 mi North 5.8 mph - 0.10 in Rain Light Rain
10:55 AM 39.2 °F 33.6 °F 37.4 °F 93% 29.74 in 2.5 mi NW 8.1 mph - 0.16 in Rain Light Rain
11:15 AM 39.2 °F 32.5 °F 37.4 °F 93% 29.74 in 7.0 mi NW 10.4 mph - 0.04 in Rain Rain
11:35 AM 37.4 °F 30.8 °F 37.4 °F 100% 29.74 in 7.0 mi NW 9.2 mph - 0.08 in Rain Light Rain
11:55 AM 37.4 °F 29.3 °F 35.6 °F 93% 29.74 in 5.0 mi NW 12.7 mph - 0.12 in Rain Rain
12:15 PM 37.4 °F 32.1 °F 35.6 °F 93% 29.72 in 10.0 mi North 6.9 mph 10.4 mph 0.03 in Rain Rain
12:35 PM 37.4 °F 32.8 °F 35.6 °F 93% 29.70 in 10.0 mi North 5.8 mph - 0.07 in Rain Light Rain
1:00 PM 37.4 °F 32.8 °F 37.4 °F 100% 29.69 in 10.0 mi North 5.8 mph - N/A Rain Light Rain
1:15 PM 37.4 °F 34.9 °F 37.4 °F 100% 29.69 in 10.0 mi NNE 3.5 mph - 0.02 in Rain Light Rain
1:35 PM 37.4 °F 32.8 °F 37.4 °F 100% 29.68 in 10.0 mi ENE 5.8 mph - 0.06 in Rain Light Rain
1:55 PM 39.2 °F 32.0 °F 37.4 °F 93% 29.65 in 10.0 mi East 11.5 mph - 0.09 in Rain Light Rain
2:15 PM 39.2 °F 32.0 °F 37.4 °F 93% 29.63 in 10.0 mi East 11.5 mph - 0.02 in Rain Light Rain
2:35 PM 39.2 °F 34.2 °F 37.4 °F 93% 29.63 in 10.0 mi ENE 6.9 mph - 0.05 in Rain Light Rain
2:55 PM 39.2 °F 34.2 °F 37.4 °F 93% 29.62 in 10.0 mi ENE 6.9 mph - 0.08 in Rain Rain
3:15 PM 41.0 °F 36.4 °F 39.2 °F 93% 29.61 in 10.0 mi ENE 6.9 mph - 0.02 in Rain Light Rain
3:35 PM 41.0 °F 37.1 °F 39.2 °F 93% 29.61 in 10.0 mi NE 5.8 mph - 0.04 in Rain Light Rain
3:55 PM 41.0 °F 38.0 °F 39.2 °F 93% 29.60 in 7.0 mi NNE 4.6 mph - 0.07 in Rain Rain
4:15 PM 41.0 °F 36.4 °F 39.2 °F 93% 29.57 in 2.5 mi NNE 6.9 mph - 0.02 in   Overcast
4:35 PM 41.0 °F 36.4 °F 39.2 °F 93% 29.56 in 2.0 mi NNE 6.9 mph - 0.05 in   Unknown
4:55 PM 41.0 °F 35.8 °F 41.0 °F 100% 29.54 in 2.0 mi NE 8.1 mph - 0.08 in   Unknown
5:15 PM 41.0 °F 37.1 °F 41.0 °F 100% 29.54 in 1.5 mi North 5.8 mph - 0.02 in   Unknown
5:35 PM 42.8 °F 37.0 °F 41.0 °F 93% 29.53 in 0.8 mi NE 10.4 mph - 0.06 in   Unknown
5:55 PM 42.8 °F 38.6 °F 42.8 °F 100% 29.53 in 4.0 mi NNW 6.9 mph - 0.09 in Rain Light Rain
6:15 PM 42.8 °F 38.6 °F 42.8 °F 100% 29.52 in 7.0 mi NW 6.9 mph - 0.03 in Rain Rain
6:35 PM 41.0 °F 35.2 °F 41.0 °F 100% 29.53 in 10.0 mi NW 9.2 mph - 0.07 in Rain Rain
6:55 PM 41.0 °F 34.7 °F 39.2 °F 93% 29.53 in 4.0 mi NW 10.4 mph 13.8 mph 0.10 in Rain Light Rain
7:15 PM 39.2 °F 31.6 °F 37.4 °F 93% 29.51 in 3.0 mi NNW 12.7 mph - 0.03 in Rain Light Rain
7:35 PM 39.2 °F 32.5 °F 37.4 °F 93% 29.49 in 10.0 mi NNW 10.4 mph - 0.06 in Rain , Thunderstorm Rain
7:55 PM 39.2 °F 33.0 °F 37.4 °F 93% 29.51 in 7.0 mi NW 9.2 mph - 0.10 in Rain , Thunderstorm Heavy Thunderstorms and Rain
8:15 PM 37.4 °F 30.3 °F 37.4 °F 100% 29.54 in 4.0 mi NW 10.4 mph - 0.03 in Thunderstorm Overcast
8:35 PM 37.4 °F 31.4 °F 37.4 °F 100% 29.54 in 5.0 mi NW 8.1 mph - 0.06 in Rain Rain
8:55 PM 37.4 °F 31.4 °F 37.4 °F 100% 29.56 in 10.0 mi NW 8.1 mph - 0.09 in Rain Rain
9:15 PM 37.4 °F 29.8 °F 35.6 °F 93% 29.51 in 4.0 mi East 11.5 mph - 0.02 in   Overcast
9:35 PM 37.4 °F 28.2 °F 37.4 °F 100% 29.45 in 7.0 mi East 16.1 mph - 0.05 in Rain Light Rain
9:55 PM 39.2 °F 34.2 °F 37.4 °F 93% 29.48 in 10.0 mi WNW 6.9 mph 18.4 mph 0.08 in Rain Rain
10:15 PM 39.2 °F 37.0 °F 37.4 °F 93% 29.45 in 10.0 mi NE 3.5 mph 15.0 mph 0.03 in Rain Light Rain
10:35 PM 39.2 °F 33.0 °F 37.4 °F 93% 29.51 in 7.0 mi WNW 9.2 mph - 0.05 in Rain Light Rain
10:55 PM 39.2 °F 33.0 °F 37.4 °F 93% 29.55 in 3.0 mi SW 9.2 mph - 0.08 in   Overcast
11:15 PM 39.2 °F 32.0 °F 37.4 °F 93% 29.58 in 2.5 mi WSW 11.5 mph - 0.02 in Rain Light Rain
11:30 PM 39.2 °F 32.0 °F 37.4 °F 93% 29.56 in 3.0 mi WSW 11.5 mph - 0.04 in   Overcast